This is the latest recevied weather packets stored in our database for station/object DB0FN-10. If no packets are shown the sender has not sent any weather packets the latest 10 day(s).
| Time | Temp. | Humidity | Pressure | Rain* | Wind** | Luminosity | Snow |
|---|---|---|---|---|---|---|---|
| 1777282232 | 21.11° C | 32% | 1024.2 hPa | - | - | - | - |
| 1777281332 | 21.67° C | 35% | 1024.3 hPa | - | - | - | - |
| 1777280432 | 20° C | 36% | 1024.4 hPa | - | - | - | - |
| 1777279532 | 20.56° C | 39% | 1024.5 hPa | - | - | - | - |
| 1777278632 | 19.44° C | 38% | 1024.5 hPa | - | - | - | - |
| 1777277732 | 18.89° C | 41% | 1024.5 hPa | - | - | - | - |
| 1777276832 | 18.89° C | 39% | 1024.5 hPa | - | - | - | - |
| 1777275931 | 18.33° C | 37% | 1024.5 hPa | - | - | - | - |
| 1777275031 | 18.33° C | 40% | 1024.5 hPa | - | - | - | - |
| 1777274131 | 17.78° C | 41% | 1024.4 hPa | - | - | - | - |
| 1777273231 | 17.22° C | 43% | 1024.4 hPa | - | - | - | - |
| 1777272330 | 17.78° C | 40% | 1024.4 hPa | - | - | - | - |
| 1777271430 | 17.22° C | 40% | 1024.3 hPa | - | - | - | - |
| 1777270530 | 16.67° C | 39% | 1024.3 hPa | - | - | - | - |
| 1777269630 | 16.67° C | 39% | 1024.2 hPa | - | - | - | - |
| 1777268730 | 17.22° C | 35% | 1024.2 hPa | - | - | - | - |
| 1777267830 | 16.11° C | 36% | 1024.2 hPa | - | - | - | - |
| 1777266930 | 15.56° C | 37% | 1024.1 hPa | - | - | - | - |
| 1777266030 | 15.56° C | 36% | 1024 hPa | - | - | - | - |
| 1777265130 | 15.56° C | 35% | 1023.9 hPa | - | - | - | - |
| 1777264230 | 15.56° C | 35% | 1023.9 hPa | - | - | - | - |
| 1777263329 | 15.56° C | 35% | 1023.7 hPa | - | - | - | - |
| 1777262429 | 15° C | 36% | 1023.7 hPa | - | - | - | - |
| 1777261529 | 16.11° C | 33% | 1023.6 hPa | - | - | - | - |
| 1777260629 | 16.67° C | 32% | 1023.7 hPa | - | - | - | - |
* Rain since midnight (hover to see other rain measurements)
** Current wind speed in m/s (hover to see current wind gust speed)